Location: Nitra
(0.0000°N, 18.0833°E)
Time: 05:19:48
(UTC+01:00)

Cosmos 2297 - Pass Details

Date: 24 January 2021
Orbit: 834 x 860 km, 71.0° (Epoch: 04 March)

Event Time Altitude Azimuth Distance (km) Brightness Sun altitude
Rises 18:42:26 0° 187° (S) 3,380 7.2 -10.1°
Reaches altitude 10° 18:44:55 10° 182° (S) 2,445 6.4 -10.6°
Maximum altitude 18:50:24 55° 105° (ESE) 1,000 3.8 -11.9°
Drops below altitude 10° 18:55:52 10° 28° (NNE) 2,449 5.7 -13.2°
Enters shadow 18:56:17 - 27° (NNE) 2,602 5.8 -13.3°
